Skagway, AK

5:40 PM AKST on January 18, 2018 (GMT -0900)
Skagway

Weather History for PAGY - December, 2012

Change the Weather History Date:

Tuesday, December 11, 2012

  Actual Average Record
Temperature  
Mean Temperature 30 °F -  
Max Temperature 37 °F 32 °F 45 °F (2002)
Min Temperature 21 °F 24 °F -6 °F (1971)
Degree Days  
Heating Degree Days 35    
Moisture  
Dew Point 23 °F    
Average Humidity 72    
Maximum Humidity 85    
Minimum Humidity 60    
Precipitation  
Precipitation 0.00 in - - ()
Sea Level Pressure  
Sea Level Pressure 29.74 in    
Wind  
Wind Speed 1 mph (NE)    
Max Wind Speed 6 mph    
Max Gust Speed -    
Visibility 10 miles    
Events      
Averages and records for this station are not official NWS values.
T = Trace of Precipitation, MM = Missing Value Source: NWS Daily Summary

Daily Weather History Graph

Daily Weather History Graph

Search for Another Location

Airport or City:

Trip Planner

Search our weather history database for the weather conditions in past years. The results will help you decide how hot, cold, wet, or windy it might be!

Date:

Astronomy

Dec. 11, 2012 Rise Set
Actual Time 8:49 AM AKST 3:00 PM AKST
Civil Twilight 7:54 AM AKST 3:55 PM AKST
Nautical Twilight 6:59 AM AKST 4:50 PM AKST
Astronomical Twilight 6:08 AM AKST 5:40 PM AKST
Moon 6:38 AM AKST (12/11) 1:58 PM AKST (12/11)
Length of Visible Light 8h 00m
Length of Day
6h 10m
Waning Crescent, 3% of the Moon is Illuminated
Dec 11
Waning Crescent
Dec 12
New
Dec 19
First Quarter
Dec 28
Full
Jan 4
Last Quarter

Hourly Weather History & Observations

Time (AKST) Temp. Windchill Dew Point Humidity Pressure Visibility Wind Dir Wind Speed Gust Speed Precip Events Conditions
12:53 AM 37.9 °F - 28.9 °F 70% 29.44 in 10.0 mi Calm Calm - N/A   Clear
1:53 AM 37.0 °F - 30.0 °F 76% 29.47 in 10.0 mi Calm Calm - N/A   Overcast
3:53 AM 37.0 °F - 25.0 °F 62% 29.51 in 10.0 mi Calm Calm - N/A   Scattered Clouds
4:53 AM 37.9 °F 35.5 °F 25.0 °F 60% 29.55 in 10.0 mi Variable 3.5 mph - N/A   Scattered Clouds
5:53 AM 35.1 °F - 26.1 °F 70% 29.58 in 10.0 mi Calm Calm - N/A   Clear
6:53 AM 34.0 °F - 25.0 °F 70% 29.62 in 10.0 mi Calm Calm - N/A   Partly Cloudy
7:53 AM 34.0 °F 29.8 °F 24.1 °F 67% 29.65 in 10.0 mi North 4.6 mph - N/A   Clear
8:53 AM 35.1 °F 30.1 °F 23.0 °F 61% 29.70 in 10.0 mi Variable 5.8 mph - N/A   Clear
9:53 AM 30.9 °F 26.2 °F 23.0 °F 72% 29.72 in 10.0 mi NE 4.6 mph - N/A   Clear
10:53 AM 32.0 °F - 25.0 °F 75% 29.75 in 10.0 mi Calm Calm - N/A   Clear
11:53 AM 33.1 °F - 24.1 °F 70% 29.78 in 10.0 mi Calm Calm - N/A   Partly Cloudy
12:53 PM 35.1 °F - 23.0 °F 61% 29.78 in 10.0 mi Calm Calm - N/A   Clear
1:53 PM 32.0 °F - 21.9 °F 66% 29.80 in 10.0 mi Calm Calm - N/A   Clear
2:53 PM 30.0 °F - 23.0 °F 75% 29.81 in 10.0 mi Calm Calm - N/A   Clear
3:53 PM 28.0 °F - 21.0 °F 75% 29.83 in 10.0 mi Calm Calm - N/A   Clear
4:53 PM 28.0 °F - 19.9 °F 72% 29.86 in 10.0 mi Calm Calm - N/A   Clear
5:53 PM 28.0 °F - 19.9 °F 72% 29.86 in 10.0 mi Calm Calm - N/A   Clear
6:53 PM 27.0 °F - 21.0 °F 78% 29.86 in 10.0 mi Calm Calm - N/A   Clear
7:53 PM 26.1 °F - 21.0 °F 81% 29.88 in 10.0 mi Calm Calm - N/A   Clear
8:53 PM 27.0 °F - 19.0 °F 72% 29.87 in 10.0 mi Calm Calm - N/A   Clear
9:53 PM 24.1 °F - 18.0 °F 77% 29.87 in 10.0 mi Calm Calm - N/A   Clear
10:53 PM 23.0 °F 18.4 °F 19.0 °F 85% 29.88 in 10.0 mi NE 3.5 mph - N/A   Clear
11:53 PM 21.9 °F - 18.0 °F 85% 29.87 in 8.0 mi Calm Calm - N/A   Clear